Zurück zum Katalog

COSMOS 1275 DEB

AktivPO
NORAD 13478·DEBRIS·🇷🇺 Russia

Gestartet Jun 4, 1981 von Plesetsk Cosmodrome

Loading…

Nächste Überflüge (nächste 24 Stunden)

TLE

AktuellSource: Space-Track

Epoche: Sep 14, 2026, 07:20 UTC

1 13478U 81053FY  26257.30611377  .00000436  00000-0  37648-3 0  9994
2 13478  82.8631  92.6185 0096672 156.4126 324.4864 13.82220211221456

Verfolge COSMOS 1275 DEB in Echtzeit mit AllMySat

Download on the App Store